Year,Month,Day,Hour,Minute,Value (Times are PST for temperature in C)
2019,03,21,00,00,13.60
2019,03,21,00,01,13.60
2019,03,21,00,02,13.60
2019,03,21,00,03,13.60
2019,03,21,00,04,13.60
2019,03,21,00,05,13.60
2019,03,21,00,06,13.60
2019,03,21,00,07,13.60
2019,03,21,00,08,13.60
2019,03,21,00,09,13.50
2019,03,21,00,10,13.50
2019,03,21,00,11,13.50
2019,03,21,00,12,13.50
2019,03,21,00,13,13.40
2019,03,21,00,14,13.40
2019,03,21,00,15,13.40
2019,03,21,00,16,13.40
2019,03,21,00,17,13.40
2019,03,21,00,18,13.40
2019,03,21,00,19,13.40
2019,03,21,00,20,13.40
2019,03,21,00,21,13.40
2019,03,21,00,22,13.40
2019,03,21,00,23,13.40
2019,03,21,00,24,13.30
2019,03,21,00,25,13.30
2019,03,21,00,26,13.30
2019,03,21,00,27,13.30
2019,03,21,00,28,13.30
2019,03,21,00,29,13.30
2019,03,21,00,30,13.30
2019,03,21,00,31,13.20
2019,03,21,00,32,13.20
2019,03,21,00,33,13.10
2019,03,21,00,34,13.10
2019,03,21,00,35,13.10
2019,03,21,00,36,13.00
2019,03,21,00,37,12.90
2019,03,21,00,38,12.90
2019,03,21,00,39,12.80
2019,03,21,00,40,12.80
2019,03,21,00,41,12.70
2019,03,21,00,42,12.60
2019,03,21,00,43,12.50
2019,03,21,00,44,12.40
2019,03,21,00,45,12.40
2019,03,21,00,46,12.30
2019,03,21,00,47,12.20
2019,03,21,00,48,12.20
2019,03,21,00,49,12.20
2019,03,21,00,50,12.20
2019,03,21,00,51,12.10
2019,03,21,00,52,12.10
2019,03,21,00,53,12.10
2019,03,21,00,54,12.10
2019,03,21,00,55,12.00
2019,03,21,00,56,12.00
2019,03,21,00,57,12.00
2019,03,21,00,58,11.90
2019,03,21,00,59,11.80
2019,03,21,01,00,11.60
2019,03,21,01,01,11.50
2019,03,21,01,02,11.40
2019,03,21,01,03,11.30
2019,03,21,01,04,11.30
2019,03,21,01,05,11.20
2019,03,21,01,06,11.20
2019,03,21,01,07,11.20
2019,03,21,01,08,11.20
2019,03,21,01,09,11.20
2019,03,21,01,10,11.20
2019,03,21,01,11,11.10
2019,03,21,01,12,11.10
2019,03,21,01,13,11.00
2019,03,21,01,14,11.00
2019,03,21,01,15,10.90
2019,03,21,01,16,10.80
2019,03,21,01,17,10.80
2019,03,21,01,18,10.80
2019,03,21,01,19,10.70
2019,03,21,01,20,10.70
2019,03,21,01,21,10.70
2019,03,21,01,22,10.60
2019,03,21,01,23,10.60
2019,03,21,01,24,10.60
2019,03,21,01,25,10.60
2019,03,21,01,26,10.60
2019,03,21,01,27,10.60
2019,03,21,01,28,10.70
2019,03,21,01,29,10.70
2019,03,21,01,30,10.80
2019,03,21,01,31,10.90
2019,03,21,01,32,10.90
2019,03,21,01,33,11.00
2019,03,21,01,34,11.10
2019,03,21,01,35,11.30
2019,03,21,01,36,11.40
2019,03,21,01,37,11.50
2019,03,21,01,38,11.60
2019,03,21,01,39,11.60
2019,03,21,01,40,11.70
2019,03,21,01,41,11.70
2019,03,21,01,42,11.70
2019,03,21,01,43,11.80
2019,03,21,01,44,11.80
2019,03,21,01,45,11.80
2019,03,21,01,46,11.80
2019,03,21,01,47,11.80
2019,03,21,01,48,11.70
2019,03,21,01,49,11.70
2019,03,21,01,50,11.70
2019,03,21,01,51,11.60
2019,03,21,01,52,11.60
2019,03,21,01,53,11.60
2019,03,21,01,54,11.50
2019,03,21,01,55,11.50
2019,03,21,01,56,11.50
2019,03,21,01,57,11.40
2019,03,21,01,58,11.40
2019,03,21,01,59,11.30
2019,03,21,02,00,11.20
2019,03,21,02,01,11.20
2019,03,21,02,02,11.10
2019,03,21,02,03,11.00
2019,03,21,02,04,10.90
2019,03,21,02,05,10.80
2019,03,21,02,06,10.70
2019,03,21,02,07,10.60
2019,03,21,02,08,10.50
2019,03,21,02,09,10.50
2019,03,21,02,10,10.40
2019,03,21,02,11,10.30
2019,03,21,02,12,10.30
2019,03,21,02,13,10.20
2019,03,21,02,14,10.10
2019,03,21,02,15,10.10
2019,03,21,02,16,10.00
2019,03,21,02,17,9.90
2019,03,21,02,18,9.80
2019,03,21,02,19,9.80
2019,03,21,02,20,9.70
2019,03,21,02,21,9.70
2019,03,21,02,22,9.60
2019,03,21,02,23,9.60
2019,03,21,02,24,9.50
2019,03,21,02,25,9.40
2019,03,21,02,26,9.40
2019,03,21,02,27,9.30
2019,03,21,02,28,9.30
2019,03,21,02,29,9.30
2019,03,21,02,30,9.30
2019,03,21,02,31,9.30
2019,03,21,02,32,9.20
2019,03,21,02,33,9.20
2019,03,21,02,34,9.20
2019,03,21,02,35,9.20
2019,03,21,02,36,9.20
2019,03,21,02,37,9.20
2019,03,21,02,38,9.20
2019,03,21,02,39,9.20
2019,03,21,02,40,9.20
2019,03,21,02,41,9.20
2019,03,21,02,42,9.20
2019,03,21,02,43,9.20
2019,03,21,02,44,9.20
2019,03,21,02,45,9.20
2019,03,21,02,46,9.20
2019,03,21,02,47,9.20
2019,03,21,02,48,9.10
2019,03,21,02,49,9.10
2019,03,21,02,50,9.10
2019,03,21,02,51,9.00
2019,03,21,02,52,9.00
2019,03,21,02,53,8.90
2019,03,21,02,54,8.90
2019,03,21,02,55,8.90
2019,03,21,02,56,8.90
2019,03,21,02,57,8.90
2019,03,21,02,58,8.90
2019,03,21,02,59,8.90
2019,03,21,03,00,8.80
2019,03,21,03,01,8.80
2019,03,21,03,02,8.80
2019,03,21,03,03,8.70
2019,03,21,03,04,8.70
2019,03,21,03,05,8.70
2019,03,21,03,06,8.70
2019,03,21,03,07,8.60
2019,03,21,03,08,8.60
2019,03,21,03,09,8.60
2019,03,21,03,10,8.50
2019,03,21,03,11,8.50
2019,03,21,03,12,8.50
2019,03,21,03,13,8.40
2019,03,21,03,14,8.40
2019,03,21,03,15,8.40
2019,03,21,03,16,8.30
2019,03,21,03,17,8.30
2019,03,21,03,18,8.30
2019,03,21,03,19,8.20
2019,03,21,03,20,8.20
2019,03,21,03,21,8.20
2019,03,21,03,22,8.20
2019,03,21,03,23,8.10
2019,03,21,03,24,8.10
2019,03,21,03,25,8.00
2019,03,21,03,26,8.00
2019,03,21,03,27,7.90
2019,03,21,03,28,7.80
2019,03,21,03,29,7.80
2019,03,21,03,30,7.70
2019,03,21,03,31,7.70
2019,03,21,03,32,7.60
2019,03,21,03,33,7.50
2019,03,21,03,34,7.50
2019,03,21,03,35,7.40
2019,03,21,03,36,7.40
2019,03,21,03,37,7.30
2019,03,21,03,38,7.30
2019,03,21,03,39,7.20
2019,03,21,03,40,7.10
2019,03,21,03,41,7.10
2019,03,21,03,42,7.10
2019,03,21,03,43,7.00
2019,03,21,03,44,7.00
2019,03,21,03,45,6.90
2019,03,21,03,46,6.90
2019,03,21,03,47,6.90
2019,03,21,03,48,6.80
2019,03,21,03,49,6.80
2019,03,21,03,50,6.80
2019,03,21,03,51,6.80
2019,03,21,03,52,6.80
2019,03,21,03,53,6.80
2019,03,21,03,54,6.80
2019,03,21,03,55,6.70
2019,03,21,03,56,6.70
2019,03,21,03,57,6.70
2019,03,21,03,58,6.70
2019,03,21,03,59,6.70
2019,03,21,04,00,6.60
2019,03,21,04,01,6.60
2019,03,21,04,02,6.60
2019,03,21,04,03,6.60
2019,03,21,04,04,6.70
2019,03,21,04,05,6.70
2019,03,21,04,06,6.70
2019,03,21,04,07,6.70
2019,03,21,04,08,6.70
2019,03,21,04,09,6.70
2019,03,21,04,10,6.70
2019,03,21,04,11,6.80
2019,03,21,04,12,6.80
2019,03,21,04,13,6.80
2019,03,21,04,14,6.80
2019,03,21,04,15,6.80
2019,03,21,04,16,6.90
2019,03,21,04,17,6.90
2019,03,21,04,18,6.90
2019,03,21,04,19,6.90
2019,03,21,04,20,6.80
2019,03,21,04,21,6.80
2019,03,21,04,22,6.80
2019,03,21,04,23,6.80
2019,03,21,04,24,6.80
2019,03,21,04,25,6.80
2019,03,21,04,26,6.80
2019,03,21,04,27,6.80
2019,03,21,04,28,6.80
2019,03,21,04,29,6.80
2019,03,21,04,30,6.80
2019,03,21,04,31,6.80
2019,03,21,04,32,6.80
2019,03,21,04,33,6.90
2019,03,21,04,34,6.90
2019,03,21,04,35,6.90
2019,03,21,04,36,6.90
2019,03,21,04,37,6.90
2019,03,21,04,38,6.90
2019,03,21,04,39,7.00
2019,03,21,04,40,7.00
2019,03,21,04,41,7.00
2019,03,21,04,42,7.00
2019,03,21,04,43,7.10
2019,03,21,04,44,7.10
2019,03,21,04,45,7.10
2019,03,21,04,46,7.20
2019,03,21,04,47,7.20
2019,03,21,04,48,7.30
2019,03,21,04,49,7.40
2019,03,21,04,50,7.40
2019,03,21,04,51,7.50
2019,03,21,04,52,7.60
2019,03,21,04,53,7.70
2019,03,21,04,54,7.70
2019,03,21,04,55,7.70
2019,03,21,04,56,7.80
2019,03,21,04,57,7.80
2019,03,21,04,58,7.80
2019,03,21,04,59,7.90
2019,03,21,05,00,7.90
2019,03,21,05,01,7.90
2019,03,21,05,02,7.90
2019,03,21,05,03,7.90
2019,03,21,05,04,7.90
2019,03,21,05,05,7.90
2019,03,21,05,06,8.00
2019,03,21,05,07,8.10
2019,03,21,05,08,8.10
2019,03,21,05,09,8.20
2019,03,21,05,10,8.20
2019,03,21,05,11,8.20
2019,03,21,05,12,8.20
2019,03,21,05,13,8.20
2019,03,21,05,14,8.20
2019,03,21,05,15,8.10
2019,03,21,05,16,8.10
2019,03,21,05,17,8.10
2019,03,21,05,18,8.00
2019,03,21,05,19,8.00
2019,03,21,05,20,7.90
2019,03,21,05,21,7.90
2019,03,21,05,22,7.80
2019,03,21,05,23,7.80
2019,03,21,05,24,7.70
2019,03,21,05,25,7.60
2019,03,21,05,26,7.60
2019,03,21,05,27,7.50
2019,03,21,05,28,7.40
2019,03,21,05,29,7.30
2019,03,21,05,30,7.20
2019,03,21,05,31,7.20
2019,03,21,05,32,7.10
2019,03,21,05,33,7.00
2019,03,21,05,34,6.90
2019,03,21,05,35,6.90
2019,03,21,05,36,6.80
2019,03,21,05,37,6.70
2019,03,21,05,38,6.70
2019,03,21,05,39,6.60
2019,03,21,05,40,6.60
2019,03,21,05,41,6.50
2019,03,21,05,42,6.40
2019,03,21,05,43,6.40
2019,03,21,05,44,6.40
2019,03,21,05,45,6.40
2019,03,21,05,46,6.40
2019,03,21,05,47,6.40
2019,03,21,05,48,6.50
2019,03,21,05,49,6.60
2019,03,21,05,50,6.70
2019,03,21,05,51,6.80
2019,03,21,05,52,6.90
2019,03,21,05,53,7.00
2019,03,21,05,54,7.10
2019,03,21,05,55,7.20
2019,03,21,05,56,7.30
2019,03,21,05,57,7.40
2019,03,21,05,58,7.50
2019,03,21,05,59,7.50
2019,03,21,06,00,7.60
2019,03,21,06,01,7.60
2019,03,21,06,02,7.60
2019,03,21,06,03,7.60
2019,03,21,06,04,7.60
2019,03,21,06,05,7.60
2019,03,21,06,06,7.60
2019,03,21,06,07,7.60
2019,03,21,06,08,7.60
2019,03,21,06,09,7.60
2019,03,21,06,10,7.60
2019,03,21,06,11,7.50
2019,03,21,06,12,7.50
2019,03,21,06,13,7.40
2019,03,21,06,14,7.30
2019,03,21,06,15,7.30
2019,03,21,06,16,7.20
2019,03,21,06,17,7.20
2019,03,21,06,18,7.10
2019,03,21,06,19,7.00
2019,03,21,06,20,7.00
2019,03,21,06,21,6.90
2019,03,21,06,22,6.90
2019,03,21,06,23,6.80
2019,03,21,06,24,6.80
2019,03,21,06,25,6.70
2019,03,21,06,26,6.70
2019,03,21,06,27,6.60
2019,03,21,06,28,6.60
2019,03,21,06,29,6.60
2019,03,21,06,30,6.60
2019,03,21,06,31,6.60
2019,03,21,06,32,6.60
2019,03,21,06,33,6.70
2019,03,21,06,34,6.80
2019,03,21,06,35,6.90
2019,03,21,06,36,7.00
2019,03,21,06,37,7.10
2019,03,21,06,38,7.20
2019,03,21,06,39,7.20
2019,03,21,06,40,7.30
2019,03,21,06,41,7.30
2019,03,21,06,42,7.30
2019,03,21,06,43,7.30
2019,03,21,06,44,7.30
2019,03,21,06,45,7.30
2019,03,21,06,46,7.30
2019,03,21,06,47,7.30
2019,03,21,06,48,7.30
2019,03,21,06,49,7.30
2019,03,21,06,50,7.30
2019,03,21,06,51,7.30
2019,03,21,06,52,7.30
2019,03,21,06,53,7.30
2019,03,21,06,54,7.30
2019,03,21,06,55,7.30
2019,03,21,06,56,7.20
2019,03,21,06,57,7.20
2019,03,21,06,58,7.20
2019,03,21,06,59,7.20
2019,03,21,07,00,7.20
2019,03,21,07,01,7.10
2019,03,21,07,02,7.10
2019,03,21,07,03,7.10
2019,03,21,07,04,7.10
2019,03,21,07,05,7.10
2019,03,21,07,06,7.10
2019,03,21,07,07,7.10
2019,03,21,07,08,7.20
2019,03,21,07,09,7.20
2019,03,21,07,10,7.20
2019,03,21,07,11,7.30
2019,03,21,07,12,7.30
2019,03,21,07,13,7.30
2019,03,21,07,14,7.30
2019,03,21,07,15,7.30
2019,03,21,07,16,7.20
2019,03,21,07,17,7.20
2019,03,21,07,18,7.20
2019,03,21,07,19,7.10
2019,03,21,07,20,7.10
2019,03,21,07,21,7.00
2019,03,21,07,22,7.00
2019,03,21,07,23,7.00
2019,03,21,07,24,6.90
2019,03,21,07,25,6.90
2019,03,21,07,26,6.90
2019,03,21,07,27,6.90
2019,03,21,07,28,6.90
2019,03,21,07,29,6.90
2019,03,21,07,30,6.90
2019,03,21,07,31,6.90
2019,03,21,07,32,6.90
2019,03,21,07,33,6.90
2019,03,21,07,34,7.00
2019,03,21,07,35,7.00
2019,03,21,07,36,7.00
2019,03,21,07,37,7.10
2019,03,21,07,38,7.10
2019,03,21,07,39,7.20
2019,03,21,07,40,7.20
2019,03,21,07,41,7.20
2019,03,21,07,42,7.20
2019,03,21,07,43,7.20
2019,03,21,07,44,7.20
2019,03,21,07,45,7.20
2019,03,21,07,46,7.20
2019,03,21,07,47,7.10
2019,03,21,07,48,7.10
2019,03,21,07,49,7.00
2019,03,21,07,50,7.00
2019,03,21,07,51,6.90
2019,03,21,07,52,6.80
2019,03,21,07,53,6.70
2019,03,21,07,54,6.70
2019,03,21,07,55,6.70
2019,03,21,07,56,6.60
2019,03,21,07,57,6.60
2019,03,21,07,58,6.60
2019,03,21,07,59,6.60
2019,03,21,08,00,6.50
2019,03,21,08,01,6.50
2019,03,21,08,02,6.50
2019,03,21,08,03,6.50
2019,03,21,08,04,6.40
2019,03,21,08,05,6.40
2019,03,21,08,06,6.40
2019,03,21,08,07,6.40
2019,03,21,08,08,6.40
2019,03,21,08,09,6.40
2019,03,21,08,10,6.40
2019,03,21,08,11,6.40
2019,03,21,08,12,6.40
2019,03,21,08,13,6.40
2019,03,21,08,14,6.40
2019,03,21,08,15,6.40
2019,03,21,08,16,6.40
2019,03,21,08,17,6.40
2019,03,21,08,18,6.40
2019,03,21,08,19,6.40
2019,03,21,08,20,6.50
2019,03,21,08,21,6.50
2019,03,21,08,22,6.50
2019,03,21,08,23,6.60
2019,03,21,08,24,6.60
2019,03,21,08,25,6.60
2019,03,21,08,26,6.70
2019,03,21,08,27,6.80
2019,03,21,08,28,6.90
2019,03,21,08,29,7.00
2019,03,21,08,30,7.10
2019,03,21,08,31,7.20
2019,03,21,08,32,7.20
2019,03,21,08,33,7.30
2019,03,21,08,34,7.30
2019,03,21,08,35,7.40
2019,03,21,08,36,7.50
2019,03,21,08,37,7.50
2019,03,21,08,38,7.60
2019,03,21,08,39,7.60
2019,03,21,08,40,7.60
2019,03,21,08,41,7.70
2019,03,21,08,42,7.70
2019,03,21,08,43,7.70
2019,03,21,08,44,7.70
2019,03,21,08,45,7.80
2019,03,21,08,46,7.90
2019,03,21,08,47,7.90
2019,03,21,08,48,8.00
2019,03,21,08,49,8.10
2019,03,21,08,50,8.20
2019,03,21,08,51,8.20
2019,03,21,08,52,8.30
2019,03,21,08,53,8.30
2019,03,21,08,54,8.40
2019,03,21,08,55,8.50
2019,03,21,08,56,8.60
2019,03,21,08,57,8.70
2019,03,21,08,58,8.80
2019,03,21,08,59,8.90
2019,03,21,09,00,9.00
2019,03,21,09,01,9.20
2019,03,21,09,02,9.30
2019,03,21,09,03,9.40
2019,03,21,09,04,9.50
2019,03,21,09,05,9.60
2019,03,21,09,06,9.70
2019,03,21,09,07,9.80
2019,03,21,09,08,9.90
2019,03,21,09,09,9.90
2019,03,21,09,10,10.10
2019,03,21,09,11,10.20
2019,03,21,09,12,10.30
2019,03,21,09,13,10.40
2019,03,21,09,14,10.50
2019,03,21,09,15,10.60
2019,03,21,09,16,10.70
2019,03,21,09,17,10.80
2019,03,21,09,18,10.90
2019,03,21,09,19,11.00
2019,03,21,09,20,11.10
2019,03,21,09,21,11.20
2019,03,21,09,22,11.30
2019,03,21,09,23,11.30
2019,03,21,09,24,11.40
2019,03,21,09,25,11.50
2019,03,21,09,26,11.60
2019,03,21,09,27,11.70
2019,03,21,09,28,11.70
2019,03,21,09,29,11.80
2019,03,21,09,30,11.80
2019,03,21,09,31,11.90
2019,03,21,09,32,11.90
2019,03,21,09,33,11.90
2019,03,21,09,34,11.90
2019,03,21,09,35,11.90
2019,03,21,09,36,12.00
2019,03,21,09,37,12.00
2019,03,21,09,38,12.10
2019,03,21,09,39,12.10
2019,03,21,09,40,12.10
2019,03,21,09,41,12.10
2019,03,21,09,42,12.20
2019,03,21,09,43,12.20
2019,03,21,09,44,12.20
2019,03,21,09,45,12.20
2019,03,21,09,46,12.30
2019,03,21,09,47,12.30
2019,03,21,09,48,12.30
2019,03,21,09,49,12.30
2019,03,21,09,50,12.30
2019,03,21,09,51,12.30
2019,03,21,09,52,12.30
2019,03,21,09,53,12.30
2019,03,21,09,54,12.30
2019,03,21,09,55,12.30
2019,03,21,09,56,12.30
2019,03,21,09,57,12.30
2019,03,21,09,58,12.40
2019,03,21,09,59,12.40
2019,03,21,10,00,12.40
2019,03,21,10,01,12.40
2019,03,21,10,02,12.40
2019,03,21,10,03,12.50
2019,03,21,10,04,12.60
2019,03,21,10,05,12.60
2019,03,21,10,06,12.70
2019,03,21,10,07,12.80
2019,03,21,10,08,12.80
2019,03,21,10,09,12.90
2019,03,21,10,10,13.00
2019,03,21,10,11,13.00
2019,03,21,10,12,13.00
2019,03,21,10,13,13.10
2019,03,21,10,14,13.10
2019,03,21,10,15,13.10
2019,03,21,10,16,13.20
2019,03,21,10,17,13.20
2019,03,21,10,18,13.20
2019,03,21,10,19,13.30
2019,03,21,10,20,13.40
2019,03,21,10,21,13.50
2019,03,21,10,22,13.50
2019,03,21,10,23,13.60
2019,03,21,10,24,13.60
2019,03,21,10,25,13.60
2019,03,21,10,26,13.60
2019,03,21,10,27,13.60
2019,03,21,10,28,13.70
2019,03,21,10,29,13.70
2019,03,21,10,30,13.70
2019,03,21,10,31,13.70
2019,03,21,10,32,13.60
2019,03,21,10,33,13.60
2019,03,21,10,34,13.50
2019,03,21,10,35,13.50
2019,03,21,10,36,13.50
2019,03,21,10,37,13.50
2019,03,21,10,38,13.60
2019,03,21,10,39,13.60
2019,03,21,10,40,13.60
2019,03,21,10,41,13.60
2019,03,21,10,42,13.70
2019,03,21,10,43,13.70
2019,03,21,10,44,13.70
2019,03,21,10,45,13.70
2019,03,21,10,46,13.70
2019,03,21,10,47,13.70
2019,03,21,10,48,13.80
2019,03,21,10,49,13.80
2019,03,21,10,50,13.80
2019,03,21,10,51,13.80
2019,03,21,10,52,13.80
2019,03,21,10,53,13.90
2019,03,21,10,54,14.00
2019,03,21,10,55,14.10
2019,03,21,10,56,14.20
2019,03,21,10,57,14.20
2019,03,21,10,58,14.20
2019,03,21,10,59,14.20
2019,03,21,11,00,14.20
2019,03,21,11,01,14.20
2019,03,21,11,02,14.20
2019,03,21,11,03,14.20
2019,03,21,11,04,14.30
2019,03,21,11,05,14.30
2019,03,21,11,06,14.40
2019,03,21,11,07,14.50
2019,03,21,11,08,14.60
2019,03,21,11,09,14.60
2019,03,21,11,10,14.60
2019,03,21,11,11,14.60
2019,03,21,11,12,14.40
2019,03,21,11,13,14.30
2019,03,21,11,14,14.20
2019,03,21,11,15,14.20
2019,03,21,11,16,14.30
2019,03,21,11,17,14.20
2019,03,21,11,18,14.20
2019,03,21,11,19,14.20
2019,03,21,11,20,14.20
2019,03,21,11,21,14.20
2019,03,21,11,22,14.20
2019,03,21,11,23,14.20
2019,03,21,11,24,14.20
2019,03,21,11,25,14.30
2019,03,21,11,26,14.30
2019,03,21,11,27,14.40
2019,03,21,11,28,14.50
2019,03,21,11,29,14.50
2019,03,21,11,30,14.50
2019,03,21,11,31,14.50
2019,03,21,11,32,14.60
2019,03,21,11,33,14.70
2019,03,21,11,34,14.70
2019,03,21,11,35,14.60
2019,03,21,11,36,14.60
2019,03,21,11,37,14.60
2019,03,21,11,38,14.50
2019,03,21,11,39,14.50
2019,03,21,11,40,14.60
2019,03,21,11,41,14.70
2019,03,21,11,42,14.90
2019,03,21,11,43,14.90
2019,03,21,11,44,14.90
2019,03,21,11,45,14.90
2019,03,21,11,46,14.80
2019,03,21,11,47,14.80
2019,03,21,11,48,14.80
2019,03,21,11,49,14.80
2019,03,21,11,50,14.80
2019,03,21,11,51,14.80
2019,03,21,11,52,14.90
2019,03,21,11,53,15.00
2019,03,21,11,54,15.10
2019,03,21,11,55,15.20
2019,03,21,11,56,15.20
2019,03,21,11,57,15.30
2019,03,21,11,58,15.40
2019,03,21,11,59,15.40
2019,03,21,12,00,15.40
2019,03,21,12,01,15.40
2019,03,21,12,02,15.50
2019,03,21,12,03,15.70
2019,03,21,12,04,15.90
2019,03,21,12,05,16.10
2019,03,21,12,06,16.20
2019,03,21,12,07,16.30
2019,03,21,12,08,16.40
2019,03,21,12,09,16.40
2019,03,21,12,10,16.30
2019,03,21,12,11,16.30
2019,03,21,12,12,16.30
2019,03,21,12,13,16.50
2019,03,21,12,14,16.50
2019,03,21,12,15,16.50
2019,03,21,12,16,16.60
2019,03,21,12,17,16.70
2019,03,21,12,18,16.70
2019,03,21,12,19,16.80
2019,03,21,12,20,16.90
2019,03,21,12,21,16.80
2019,03,21,12,22,16.80
2019,03,21,12,23,16.90
2019,03,21,12,24,16.90
2019,03,21,12,25,17.00
2019,03,21,12,26,17.10
2019,03,21,12,27,17.10
2019,03,21,12,28,17.00
2019,03,21,12,29,17.00
2019,03,21,12,30,17.10
2019,03,21,12,31,17.20
2019,03,21,12,32,17.20
2019,03,21,12,33,17.30
2019,03,21,12,34,17.40
2019,03,21,12,35,17.50
2019,03,21,12,36,17.60
2019,03,21,12,37,17.60
2019,03,21,12,38,17.60
2019,03,21,12,39,17.60
2019,03,21,12,40,17.60
2019,03,21,12,41,17.60
2019,03,21,12,42,17.70
2019,03,21,12,43,17.80
2019,03,21,12,44,17.90
2019,03,21,12,45,17.90
2019,03,21,12,46,17.80
2019,03,21,12,47,17.80
2019,03,21,12,48,17.90
2019,03,21,12,49,18.00
2019,03,21,12,50,18.10
2019,03,21,12,51,18.10
2019,03,21,12,52,18.10
2019,03,21,12,53,18.10
2019,03,21,12,54,18.00
2019,03,21,12,55,17.90
2019,03,21,12,56,17.90
2019,03,21,12,57,17.80
2019,03,21,12,58,17.80
2019,03,21,12,59,17.70
2019,03,21,13,00,17.60
2019,03,21,13,01,17.60
2019,03,21,13,02,17.40
2019,03,21,13,03,17.30
2019,03,21,13,04,17.20
2019,03,21,13,05,17.20
2019,03,21,13,06,17.20
2019,03,21,13,07,17.20
2019,03,21,13,08,17.30
2019,03,21,13,09,17.30
2019,03,21,13,10,17.20
2019,03,21,13,11,17.30
2019,03,21,13,12,17.30
2019,03,21,13,13,17.40
2019,03,21,13,14,17.40
2019,03,21,13,15,17.20
2019,03,21,13,16,17.00
2019,03,21,13,17,16.90
2019,03,21,13,18,16.90
2019,03,21,13,19,16.90
2019,03,21,13,20,16.80
2019,03,21,13,21,16.70
2019,03,21,13,22,16.50
2019,03,21,13,23,16.60
2019,03,21,13,24,16.60
2019,03,21,13,25,16.60
2019,03,21,13,26,16.50
2019,03,21,13,27,16.40
2019,03,21,13,28,16.40
2019,03,21,13,29,16.40
2019,03,21,13,30,16.30
2019,03,21,13,31,16.30
2019,03,21,13,32,16.40
2019,03,21,13,33,16.50
2019,03,21,13,34,16.50
2019,03,21,13,35,16.50
2019,03,21,13,36,16.50
2019,03,21,13,37,16.30
2019,03,21,13,38,16.20
2019,03,21,13,39,16.10
2019,03,21,13,40,16.10
2019,03,21,13,41,16.20
2019,03,21,13,42,16.20
2019,03,21,13,43,16.30
2019,03,21,13,44,16.40
2019,03,21,13,45,16.50
2019,03,21,13,46,16.40
2019,03,21,13,47,16.40
2019,03,21,13,48,16.40
2019,03,21,13,49,16.30
2019,03,21,13,50,16.30
2019,03,21,13,51,16.50
2019,03,21,13,52,16.60
2019,03,21,13,53,16.60
2019,03,21,13,54,16.60
2019,03,21,13,55,16.70
2019,03,21,13,56,16.80
2019,03,21,13,57,16.90
2019,03,21,13,58,16.90
2019,03,21,13,59,16.80
2019,03,21,14,00,16.70
2019,03,21,14,01,16.70
2019,03,21,14,02,16.60
2019,03,21,14,03,16.50
2019,03,21,14,04,16.40
2019,03,21,14,05,16.40
2019,03,21,14,06,16.40
2019,03,21,14,07,16.50
2019,03,21,14,08,16.50
2019,03,21,14,09,16.60
2019,03,21,14,10,16.70
2019,03,21,14,11,16.80
2019,03,21,14,12,16.90
2019,03,21,14,13,16.90
2019,03,21,14,14,17.00
2019,03,21,14,15,17.00
2019,03,21,14,16,17.20
2019,03,21,14,17,17.30
2019,03,21,14,18,17.30
2019,03,21,14,19,17.40
2019,03,21,14,20,17.60
2019,03,21,14,21,17.60
2019,03,21,14,22,17.70
2019,03,21,14,23,17.80
2019,03,21,14,24,17.80
2019,03,21,14,25,17.90
2019,03,21,14,26,17.80
2019,03,21,14,27,17.70
2019,03,21,14,28,17.60
2019,03,21,14,29,17.50
2019,03,21,14,30,17.50
2019,03,21,14,31,17.60
2019,03,21,14,32,17.80
2019,03,21,14,33,18.00
2019,03,21,14,34,18.10
2019,03,21,14,35,18.00
2019,03,21,14,36,18.00
2019,03,21,14,37,18.10
2019,03,21,14,38,18.10
2019,03,21,14,39,18.00
2019,03,21,14,40,18.00
2019,03,21,14,41,17.90
2019,03,21,14,42,18.00
2019,03,21,14,43,17.90
2019,03,21,14,44,17.90
2019,03,21,14,45,17.80
2019,03,21,14,46,17.70
2019,03,21,14,47,17.70
2019,03,21,14,48,17.60
2019,03,21,14,49,17.60
2019,03,21,14,50,17.60
2019,03,21,14,51,17.60
2019,03,21,14,52,17.70
2019,03,21,14,53,17.70
2019,03,21,14,54,17.80
2019,03,21,14,55,17.80
2019,03,21,14,56,17.70
2019,03,21,14,57,17.50
2019,03,21,14,58,17.50
2019,03,21,14,59,17.50
2019,03,21,15,00,17.50
2019,03,21,15,01,17.50
2019,03,21,15,02,17.50
2019,03,21,15,03,17.40
2019,03,21,15,04,17.40
2019,03,21,15,05,17.30
2019,03,21,15,06,17.20
2019,03,21,15,07,17.10
2019,03,21,15,08,17.00
2019,03,21,15,09,17.10
2019,03,21,15,10,17.10
2019,03,21,15,11,17.10
2019,03,21,15,12,17.10
2019,03,21,15,13,17.20
2019,03,21,15,14,17.10
2019,03,21,15,15,17.10
2019,03,21,15,16,17.10
2019,03,21,15,17,17.10
2019,03,21,15,18,17.10
2019,03,21,15,19,17.20
2019,03,21,15,20,17.20
2019,03,21,15,21,17.20
2019,03,21,15,22,17.10
2019,03,21,15,23,17.00
2019,03,21,15,24,17.00
2019,03,21,15,25,16.90
2019,03,21,15,26,17.00
2019,03,21,15,27,17.10
2019,03,21,15,28,17.30
2019,03,21,15,29,17.30
2019,03,21,15,30,17.20
2019,03,21,15,31,17.20
2019,03,21,15,32,17.20
2019,03,21,15,33,17.20
2019,03,21,15,34,17.30
2019,03,21,15,35,17.30
2019,03,21,15,36,17.40
2019,03,21,15,37,17.30
2019,03,21,15,38,17.20
2019,03,21,15,39,17.00
2019,03,21,15,40,17.00
2019,03,21,15,41,17.00
2019,03,21,15,42,17.10
2019,03,21,15,43,17.10
2019,03,21,15,44,17.10
2019,03,21,15,45,17.10
2019,03,21,15,46,17.10
2019,03,21,15,47,17.10
2019,03,21,15,48,17.00
2019,03,21,15,49,16.90
2019,03,21,15,50,16.90
2019,03,21,15,51,16.90
2019,03,21,15,52,16.80
2019,03,21,15,53,16.70
2019,03,21,15,54,16.70
2019,03,21,15,55,16.70
2019,03,21,15,56,16.70
2019,03,21,15,57,16.80
2019,03,21,15,58,16.90
2019,03,21,15,59,17.00
2019,03,21,16,00,17.20
2019,03,21,16,01,17.50
2019,03,21,16,02,17.70
2019,03,21,16,03,17.70
2019,03,21,16,04,17.80
2019,03,21,16,05,17.80
2019,03,21,16,06,17.70
2019,03,21,16,07,17.70
2019,03,21,16,08,17.50
2019,03,21,16,09,17.50
2019,03,21,16,10,17.40
2019,03,21,16,11,17.30
2019,03,21,16,12,17.30
2019,03,21,16,13,17.20
2019,03,21,16,14,17.20
2019,03,21,16,15,17.20
2019,03,21,16,16,17.10
2019,03,21,16,17,17.10
2019,03,21,16,18,17.10
2019,03,21,16,19,17.10
2019,03,21,16,20,17.20
2019,03,21,16,21,17.20
2019,03,21,16,22,17.20
2019,03,21,16,23,17.10
2019,03,21,16,24,17.10
2019,03,21,16,25,17.10
2019,03,21,16,26,17.10
2019,03,21,16,27,17.10
2019,03,21,16,28,17.10
2019,03,21,16,29,17.00
2019,03,21,16,30,17.00
2019,03,21,16,31,16.90
2019,03,21,16,32,16.90
2019,03,21,16,33,16.80
2019,03,21,16,34,16.80
2019,03,21,16,35,16.80
2019,03,21,16,36,16.70
2019,03,21,16,37,16.70
2019,03,21,16,38,16.70
2019,03,21,16,39,16.60
2019,03,21,16,40,16.60
2019,03,21,16,41,16.60
2019,03,21,16,42,16.60
2019,03,21,16,43,16.60
2019,03,21,16,44,16.50
2019,03,21,16,45,16.40
2019,03,21,16,46,16.40
2019,03,21,16,47,16.40
2019,03,21,16,48,16.40
2019,03,21,16,49,16.30
2019,03,21,16,50,16.30
2019,03,21,16,51,16.30
2019,03,21,16,52,16.30
2019,03,21,16,53,16.30
2019,03,21,16,54,16.30
2019,03,21,16,55,16.30
2019,03,21,16,56,16.30
2019,03,21,16,57,16.30
2019,03,21,16,58,16.30
2019,03,21,16,59,16.30
2019,03,21,17,00,16.30
2019,03,21,17,01,16.30
2019,03,21,17,02,16.30
2019,03,21,17,03,16.30
2019,03,21,17,04,16.30
2019,03,21,17,05,16.30
2019,03,21,17,06,16.20
2019,03,21,17,07,16.20
2019,03,21,17,08,16.10
2019,03,21,17,09,16.10
2019,03,21,17,10,16.10
2019,03,21,17,11,16.10
2019,03,21,17,12,16.00
2019,03,21,17,13,15.90
2019,03,21,17,14,15.90
2019,03,21,17,15,15.90
2019,03,21,17,16,15.90
2019,03,21,17,17,15.80
2019,03,21,17,18,15.80
2019,03,21,17,19,15.80
2019,03,21,17,20,15.90
2019,03,21,17,21,15.90
2019,03,21,17,22,15.90
2019,03,21,17,23,15.80
2019,03,21,17,24,15.80
2019,03,21,17,25,15.70
2019,03,21,17,26,15.70
2019,03,21,17,27,15.60
2019,03,21,17,28,15.50
2019,03,21,17,29,15.50
2019,03,21,17,30,15.50
2019,03,21,17,31,15.40
2019,03,21,17,32,15.40
2019,03,21,17,33,15.30
2019,03,21,17,34,15.30
2019,03,21,17,35,15.20
2019,03,21,17,36,15.10
2019,03,21,17,37,15.10